Regional Weather Roundup
Issued by NWS

Home | Current Version | Previous Version | Text Only | Print | Product List | Glossary On
Versions: 1 2 3 4 5 6 7 8 9 10 11 12 13 14 15 16 17 18 19 20 21 22 23 24 25 26 27 28 29 30 31 32 33 34 35 36 37 38 39 40 41 42 43 44 45 46 47 48 49 50
000
ASUS45 KBOU 271407
RWRCO

WEATHER ROUNDUP FOR COLORADO
NATIONAL WEATHER SERVICE DENVER/BOULDER CO
800 AM MDT TUE JUN 27 2017

NOTE: "FAIR" INDICATES FEW OR NO CLOUDS BELOW 12000 FEET WITH NO
SIGNIFICANT WEATHER AND/OR OBSTRUCTIONS TO VISIBILITY.

COZ001>005-013-030-031-271500-
...NORTHWEST COLORADO...

CITY           SKY/WX    TMP DP  RH WIND       PRES   REMARKS
CRAIG          FAIR      59  39  47 CALM      30.06S
HAYDEN         FAIR      63  34  34 E12       30.08R
MEEKER         FAIR      63  37  38 VRB3      30.07F
RABBIT EARS PA FAIR      57  30  35 SW7G20    30.37F
STEAMBOAT SPGS FAIR      55  38  53 W10G21    30.10F
WALDEN         NOT AVBL
$$

COZ006>008-011-271500-
...WEST CENTRAL VALLEYS...

CITY           SKY/WX    TMP DP  RH WIND       PRES   REMARKS
GRAND JUNCTION FAIR      78  34  20 SE15      29.97S
MONTROSE       FAIR      74  37  26 E9        30.10R
EAGLE          SUNNY     55  32  41 CALM      30.18F
RIFLE          FAIR      62  37  39 CALM      30.06S
DELTA          FAIR      73  35  24 E8        30.06R
NUCLA          FAIR      73  32  21 E5        30.14S
$$

COZ017>023-064>068-271500-
...SOUTHWEST COLORADO...

CITY           SKY/WX    TMP DP  RH WIND       PRES   REMARKS
DURANGO        FAIR      61  40  45 CALM      30.24S
CORTEZ         FAIR      68  44  42 E3        30.15S
PAGOSA SPRINGS FAIR      58  38  47 CALM      30.32S
TELLURIDE      FAIR      62  36  37 CALM      30.38S
WOLF CREEK PAS FAIR      45  34  65 S9        30.62S
$$

COZ009-010-012-014-032>034-037-058>063-271500-
...CENTRAL COLORADO...

CITY           SKY/WX    TMP DP  RH WIND       PRES   REMARKS
ASPEN          FAIR      66  36  32 SE6       30.20F
BUENA VISTA    FAIR      57  36  46 CALM      30.30F
COPPER MTN     PTSUNNY   54  27  35 S18G24    30.53S
BERTHOUD PASS  FAIR      46  32  57 W22G40    30.53S
COTTONWOOD PAS FAIR      55  34  44 CALM      30.41S
GUNNISON       FAIR      55  36  48 N10       30.29F
KREMMLING      NOT AVBL
LEADVILLE      PTSUNNY   50  32  50 CALM      30.39S
MONARCH PASS   FAIR      46  32  57 SW20G26   30.65F
SALIDA         FAIR      66  36  32 SW14      30.33S
SUNLIGHT       FAIR      52  30  43 SW16G25   30.44R
WILKERSON PASS FAIR      46  30  53 SW15G23   30.50R
$$

COZ069>075-271500-
...SAN LUIS VALLEY/SANGRE DE CRISTO MOUNTAINS...

CITY           SKY/WX    TMP DP  RH WIND       PRES   REMARKS
ALAMOSA        FAIR      58  42  55 SE3       30.31R
DEL NORTE      FAIR      54  39  57 CALM      30.34S
LA VETA PASS   FAIR      46  36  66 MISG      30.54F
SAGUACHE       FAIR      59  36  41 W3        30.34S
$$

COZ035-036-038>040-271500-
...NORTHERN COLORADO FRONT RANGE...

CITY           SKY/WX    TMP DP  RH WIND       PRES   REMARKS
DENVER INTL AP FAIR      68  50  52 SW3       29.98F
DMNS CITY PARK   N/A     71  51  48 NE6       29.98F
AURORA         MOSUNNY   74  40  29 SW21      30.00F
FRONT RANGE AP FAIR      77  37  24 SW14G21   29.99F
ERIE MUNI ARPT FAIR      60  56  88 N5        30.00R
BOULDER MUN AP FAIR      63  55  77 NE5       29.99S
CENTENNIAL     PTSUNNY   74  36  25 SW22G32   30.02F
BROOMFIELD     FAIR      64  54  68 CALM      30.01S
FORT COLLINS   FAIR      62  56  80 VRB3      29.99F
LONGMONT       FAIR      66  56  70 N6        30.00S
$$

COZ041-046-047-076>085-087-088-271500-
...PIKES PEAK/PALMER DIVIDE AND SOUTHERN FOOTHILLS...

CITY           SKY/WX    TMP DP  RH WIND       PRES   REMARKS
COLO. SPRINGS  FAIR      63  44  50 SE5       30.11F
A. F. ACADEMY  PTSUNNY   63  45  51 S7        30.11F
SCHRIEVER AFB  FAIR      61  45  56 SE6       30.11F
CHEYENNE MTN   FAIR      63  47  56 N3        30.10S
ELLICOTT       FAIR     N/A N/A N/A SE9       30.08F
FALCON           N/A     64  39  40 CALM      30.15F
FORT CARSON    FAIR      63  46  52 CALM      30.08S
LIMON          FAIR      66  53  63 SE13      30.05F
MONUMENT HILL  FAIR      68  36  30 SW10      30.15F
CANON CITY     SUNNY     77  41  27 W18       30.06S
WALSENBURG     FAIR      77  41  27 W25G31    30.11S
TRINIDAD       FAIR      72  47  40 W13       30.10F
$$

COZ042>045-048>051-090-091-271500-
...NORTHEAST COLORADO...

CITY           SKY/WX    TMP DP  RH WIND       PRES   REMARKS
GREELEY ARPT   FAIR      63  57  81 N7        29.97S
AKRON          FAIR      66  56  70 SE15      29.97F
BURLINGTON     CLOUDY    61  59  93 S12       30.00F FOG
WRAY           CLOUDY    59  59 100 SE13      29.98F FOG
YUMA           CLOUDY    61  54  77 S12       29.97F
STERLING       FAIR      68  61  77 S10G16    29.93F
HOLYOKE        NOT AVBL
FORT MORGAN    FAIR      66  55  66 SE6       29.95F
$$

COZ086-089-092>099-271500-
...SOUTHEAST COLORADO...

CITY           SKY/WX    TMP DP  RH WIND       PRES   REMARKS
PUEBLO         FAIR      66  47  50 VRB3      30.03F
LA JUNTA       FAIR      73  55  53 S10       30.00F
LAMAR          FAIR      67  59  75 CALM      29.99F
SPRINGFIELD      N/A     71  58  63 SW9       30.04F
$$



USA.gov is the U.S. government's official web portal to all federal, state and local government web resources and services.